Skip Page Navigation
NASA JPL Caltech
NASA Logo - Jet Propulsion Laboratory + View the NASA Portal
+ Center for Near-Earth Object Studies
JPL Home Earth Solar System Stars & Galaxies Technology
JPL Solar System Dynamics
BODIES ORBITS EPHEMERIDES TOOLS PHYSICAL DATA DISCOVERY FAQ SITE MAP
JPL Small-Body Database Browser
Search: [ help ]  
72152 (2000 YY96)
Classification: Main-belt Asteroid          SPK-ID: 2072152
Ephemeris | Orbit Diagram | Orbital Elements | Mission Design | Physical Parameters | Discovery Circumstances ]

[ show orbit diagram ]
Orbital Elements at Epoch 2459200.5 (2020-Dec-17.0) TDB
Reference: JPL 24 (heliocentric ecliptic J2000)
 Element Value Uncertainty (1-sigma)   Units 
e .1521939872208205 3.0252e-08  
a 2.385126146979935 9.0163e-09 au
q 2.022124288646426 7.1607e-08 au
i .7598125300431396 4e-06 deg
node 314.7814587451361 0.00038213 deg
peri 135.8680731609535 0.00038265 deg
M 167.7460160238949 2.0782e-05 deg
tp 2458573.575603378953
(2019-Mar-31.07560338)
7.6039e-05 TDB
period 1345.443475399307
3.68
7.6291e-06
2.089e-08
d
yr
n .2675697690630649 1.5172e-09 deg/d
Q 2.748128005313444 1.0389e-08 au
  Orbit Determination Parameters
   # obs. used (total)      701  
   data-arc span      10110 days (27.68 yr)  
   first obs. used      1992-10-18  
   last obs. used      2020-06-23  
   planetary ephem.      DE441  
   SB-pert. ephem.      SB441-N16  
   condition code      0  
   norm. resid. RMS      .54358  
   source      ORB  
   producer      Otto Matic  
   solution date      2021-Apr-13 13:00:31  

Additional Information
 Earth MOID = 1.03851 au 
 Jupiter MOID = 2.43144 au 
 T_jup = 3.520 
[ show covariance matrix ]

Ephemeris | Orbit Diagram | Orbital Elements | Mission Design | Physical Parameters | Discovery Circumstances ]

Physical Parameter Table
Parameter Symbol Value Units Sigma Reference Notes
absolute magnitude H 16.34   n/a E2021B10  

72152 (2000 YY96)          Discovered 2000-Dec-30 by LINEAR at Socorro
Reference: 20031109/Numbers.arcLast Updated: 2004-04-19
Ephemeris | Orbit Diagram | Orbital Elements | Mission Design | Physical Parameters | Discovery Circumstances ]
ABOUT SSD CREDITS/AWARDS PRIVACY/COPYRIGHT GLOSSARY LINKS
FirstGov 2021-Jun-18 03:55 UT
(server date/time)  
NASA Home Page
Site Manager:   Ryan S. Park
Webmaster  Alan B. Chamberlin